Location: �clusier
(49.9361°N, 2.7869°E)
Time: 04:35:40
(UTC+00:00)

Cosmos 2016 Rocket - Pass Details

Date: 25 October 2021
Orbit: 947 x 1000 km, 83.0° (Epoch: 05 December)

Event Time Altitude Azimuth Distance (km) Brightness Sun altitude
Exits shadow 21:32:39 19° 310° (NW) 2,110 6.2 -45.1°
Drops below altitude 10° 21:36:07 10° 345° (NNW) 2,692 6.8 -45.5°
Sets 21:39:24 0° 2° (N) 3,636 7.4 -45.9°
